sat.trackr.live / text

‹ back to catalog

STARLINK-34416

NORAD 64619 · 2025-137AB

PAYLOAD ACTIVE UNKNOWN

§ Identity

Operator
Country
US
Launch date
2025-06-25
Launch site
AFETR
Launch vehicle
Mass (kg)
RCS (m²)

Purposes: comms

External: N2YO · Heavens-Above · Gunter

§ Orbital elements

Epoch: 2026-09-20T09:38:22.558272Z

Period
93.85 min
Inclination
53.1582°
Eccentricity
0.0001694
Mean motion
15.34404531 rev/d
Perigee alt
461.5 km
Apogee alt
463.8 km
Semi-major
6,840.8 km
B*
3.6818e-4
RAAN
148.1573°
Arg perigee
84.0591°
Mean anomaly
276.0605°
Rev number
7,058

§ Raw data

STARLINK-344161 64619U 25137AB  26263.40164998  .00012085  00000+0  36818-3 0  99982 64619  53.1582 148.1573 0001694  84.0591 276.0605 15.34404531 70584

JSON: /api/v1/satellites/64619 · /tle

For live sub-satellite position, see the globe view (requires WebGL).

§ Visibility from observer

Set your observer location to see the next 7 days of passes ≥ 10°. The values pass through the URL so the page stays shareable.

No JS? Fill the form by hand. The geolocation button needs JavaScript.